Regional Weather Roundup
Issued by NWS Wakefield, VA

Home | Current Version | Previous Version | Graphics & Text | Print | Product List | Glossary On
Versions: 1 2 3 4 5 6 7 8 9 10 11 12 13 14 15 16 17 18 19 20 21 22 23 24 25 26 27 28 29 30 31 32 33 34 35 36 37 38 39 40 41 42 43 44 45 46 47 48 49 50
322
ASUS41 KAKQ 011215
RWRAKQ

REGIONAL WEATHER ROUNDUP
NATIONAL WEATHER SERVICE WAKEFIELD VA
800 AM EDT SUN MAY 01 2016

Note: "fair" indicates few or no clouds below 12,000 feet with no
significant weather and/or obstructions to visibility. * = Denotes
station may not report precipitation (e.g., rain,snow,etc.),
thunder or fog.

VAZ042-051-052>054-056-011300-
NORTHERN VIRGINIA

CITY           SKY/WX    TMP DP  RH WIND       PRES   REMARKS
WASH NATIONAL  LGT RAIN  53  51  93 SE9       30.13S
DULLES         LGT RAIN  51  50  96 S8        30.11S FOG
FORT BELVOIR   LGT RAIN  54  50  87 SE5       30.13R
QUANTICO       RAIN      54  52  93 S13       30.14R FOG
FREDERICKSBRG* LGT RAIN  53  53 100 S5        30.13R
STAFFORD*      RAIN      51  50  95 SE5       30.16S
WARRENTON      RAIN      53  48  84 S5        30.11S
CULPEPER*      RAIN      53  53  99 S5        30.12S
MANASSAS*      LGT RAIN  52  52 100 S6        30.11F
LEESBURG*      LGT RAIN  52  52 100 S9        30.11S
WINCHESTER     LGT RAIN  52  52 100 SE7       30.06F
FRONT ROYAL*   CLOUDY    52  52 100 CALM      30.07R
LURAY*         LGT RAIN  54  54 100 SW3       30.07S
$$

VAZ048-049-060>072-079>083-011300-
CENTRAL AND SOUTH CENTRAL VIRGINIA

CITY           SKY/WX    TMP DP  RH WIND       PRES   REMARKS
RICHMOND       LGT RAIN  53  52  96 SE7       30.12S
CHESTERFIELD*  CLOUDY    54  41  62 SE6       30.13S
PETERSBURG*    CLOUDY    55  55 100 E3        30.13S
HANOVER        CLOUDY    53  50  89 VRB3      30.13F
TAPPAHANNOCK*  DRIZZLE   54  54 100 E3        30.13S
QUINTON*       CLOUDY    53  53  99 SE5       30.12F
CHARLOTTSVILLE LGT RAIN  53  51  93 S7        30.08F FOG
GORDONSVILLE*  CLOUDY    52  52  99 S5        30.09F
ORANGE*        LGT RAIN  52  52 100 CALM      30.13S
LOUISA*        LGT RAIN  55  54  94 SE3       30.11S
BUMPASS*       CLOUDY    51  51  98 CALM      30.12S
FARMVILLE*     LGT RAIN  54  54 100 CALM      30.09S
CREWE*         CLOUDY    52  52 100 SE3       30.10S
FORT PICKETT*  NOT AVBL
CHASE CITY*    CLOUDY    55  53  94 CALM      30.10R
CLARKSVILLE*   CLOUDY    55  55 100 CALM      30.09S
SOUTH HILL*    CLOUDY    54  54  98 SE3       30.15F
LAWRENCEVILLE* CLOUDY    55  53  94 E6        30.10F
EMPORIA*       CLOUDY    54  52  94 E3        30.14S
$$

VAZ088>098-011300-
SOUTHEAST VIRGINIA

CITY           SKY/WX    TMP DP  RH WIND       PRES   REMARKS
NORFOLK        CLOUDY    57  50  77 E6        30.13F
VIRGINIA BEACH CLOUDY    59  51  75 E8        30.13S
NORFOLK NAVAL  CLOUDY    58  51  78 E8        30.15F
WEST POINT*    CLOUDY    54  53  97 E6        30.14F
SALUDA*        CLOUDY    54  52  93 SE3       30.13S
NEWPORT NEWS   CLOUDY    57  53  86 E7        30.13F
LANGLEY AFB    CLOUDY    57  52  82 SE5       30.13F
FORT EUSTIS    PTSUNNY   57  53  85 E8        30.11F
WILLIAMSBURG*  FAIR      57  55  94 E9        30.13S
HR EXEC AP*    CLOUDY    57  52  82 E6        30.15F
FRANKLIN*      FAIR      55  52  89 CALM      30.13S
US460-WAKEFLD  FAIR      56  51  84 CALM      30.13S
$$

VAZ020-022-025-037-045-011300-
WEST CENTRAL AND SOUTHWEST VIRGINIA

CITY           SKY/WX    TMP DP  RH WIND       PRES   REMARKS
STAUNTON*      LGT RAIN  55  55 100 S5        30.09S
WAYNESBORO*    CLOUDY    51  50  96 MISG      30.07S
HOT SPRINGS VA HVY RAIN  50  50 100 W8        30.08R VSB<1/4
LYNCHBURG      CLOUDY    53  53 100 VRB3      30.10S FOG
DANVILLE       CLOUDY    58  57  97 CALM      30.08R
SOUTH BOSTON*  CLOUDY    56  55  95 CALM      30.09S
MARTINSVILLE   LGT RAIN  54  53  98 CALM      30.10R
ROANOKE        LGT RAIN  54  53  97 SE5       30.09S FOG
BLACKSBURG     HVY RAIN  55  54  99 NW13      30.13R
DUBLIN*        LGT RAIN  55  55 100 CALM      30.10R
MARION*        CLOUDY    56  55  94 CALM      30.09S
HILLSVILLE*    LGT RAIN  55  55 100 S9        30.07R
RICHLANDS*     TSTM      57  56  94 CALM      30.07R VSB 1
WISE*          RAIN      59  59 100 CALM      30.07R
ABINGDON*      PTSUNNY   62  59  90 CALM      30.04R
$$

MDZ021>025-VAZ099-100-011300-
SOUTHERN MARYLAND AND THE DELMARVA PENINSULA

CITY           SKY/WX    TMP DP  RH WIND       PRES   REMARKS
PATUXENT RIVER LGT RAIN  53  50  89 SE13      30.13F
BAY BRIDGE APT NOT AVBL
LEONARDTOWN    CLOUDY    52  50  93 SE5       30.14F
DOVER          LGT RAIN  51  51 100 E10       30.16F
GEORGETOWN     LGT RAIN  50  49  96 E6        30.17F
EASTON         LGT RAIN N/A N/A N/A E6          N/A
CAMBRIDGE      CLOUDY    50  46  87 CALM      30.15S
SALISBURY      LGT RAIN  50  50 100 E6        30.16F FOG
OCEAN CITY     LGT RAIN  52  49  89 E6        30.17F
WALLOPS ISLAND LGT RAIN  52  50  93 E6        30.17F FOG
ACCOMACK*      DRIZZLE   52 -18   5 E5        30.15F
$$

NCZ012>017-030>032-011300-
NORTH CENTRAL AND EASTERN NORTH CAROLINA

CITY           SKY/WX    TMP DP  RH WIND       PRES   REMARKS
ROANOKE RAPIDS CLOUDY    55  54  94 CALM      30.13R
RALEIGH        CLOUDY    60  57  89 SE8       30.10S
ELIZABETH CITY CLOUDY    58  55  90 E5        30.13S
AHOSKIE*       CLOUDY    55  53  91 CALM      30.13R
EDENTON*       CLOUDY    59  59 100 CALM      30.13F
CURRITUCK*     CLOUDY    58  54  85 E6        30.14F
KILL DEVIL HLS CLOUDY    60  57  90 E3        30.12S
MANTEO         NOT AVBL
CAPE HATTERAS  CLOUDY    66  61  84 E5        30.12F
TARBORO*       CLOUDY    58  55  89 S3        30.14R
GOLDSBORO      CLOUDY    61  61 100 E3        30.10R
WASHINGTON     CLOUDY    57  54  91 E5        30.12R
GREENVILLE     CLOUDY    57  55  94 CALM      30.13R
NEW BERN       CLOUDY    63  58  83 NE3       30.12S
WILMINGTON     CLOUDY    67  65  93 CALM      30.09S
$$

VAZ048-011300-
ELSEWHERE

CITY           SKY/WX    TMP DP  RH WIND       PRES   REMARKS
HARRISBURG PA  LGT RAIN  47  44  90 SE10      30.11F
BALTIMORE      LGT RAIN  50  49  96 SE8       30.13S FOG
ANNAPOLIS      LGT RAIN  52  50  93 MISG      30.13F
ANDREWS AFB    LGT RAIN  52  50  93 SE8       30.12R
PHILADELPHIA   RAIN      47  41  80 E7        30.20S
HENDERSON NC   LGT RAIN  56  56 100 SE5       30.10R
GREENSBORO     CLOUDY    61  60  97 S8        30.06R FOG
ROCKY MOUNT    CLOUDY    58  56  93 E5        30.12R FOG
$$

VAZ100-011300-
MARINE

STATION/POSITION TIME  TEMP    WIND        PRES    WAVE   SWELL
                       AIR SEA DIR/SP/G            HT/PER HT/PER
                 (UTC) (F)     (DEG/KT/KT) (MB)    (FT/S) (FT/S)
BRANDYWINE LGT   1100   51     110/  9/ 10 1022.1R
CAPE MAY NJ      1100   50 57   70/  4/  5 1021.9R
LEWES DE         1100   51 56  120/  5/  7 1022.0R
15NM E FENWICK I 1150   51 51              1022.1R   4/ 9
OCEAN-CITY-INLET 1100   52 54  100/  3/  4 1021.4R
WACHAPREAGUE VA  1100   53 58  350/  1/  2 1021.5R
THOMAS POINT MD  1200   51 57  130/ 12/ 14 1021.6F
GOOSES REEF MD   1200   53 57  140/ 14/ 16 1021.3F   2/ 3
COVE POINT MD    1100   53     180/ 13/ 15 1021.1S
SOLOMONS ISLAND  1100   54 59  160/  9/ 11   N/A
BISHOPS HEAD MD  1100   53 57  140/ 12/ 14 1020.2F
PINEY POINT MD   1100          170/ 12/ 14   N/A
POTOMAC MD       1200   54 58  150/ 14/ 16 1019.6F   1/ 3
CAMBRIDGE MD     1100   50 60  110/  6/  7 1020.3F
LEWISETTA VA     1100   53 59  160/  5/  7 1020.3R
RAPPAHANNOCK LGT 1100           90/ 12/ 13 1021.2F
STINGRAY PT      1200   56 60  120/ 14/ 16 1020.5F   1/ 2
YORK RVR RNG VA  1100   57     120/ 10/ 11 1020.0F
YORKTOWN VA      1100   57 61  130/  7/ 10 1020.3F
JAMESTOWN VA     1200   57 65  120/ 10/ 14   N/A
DOMINION TERM VA 1100   57     100/  6/  8 1020.6F
KIPTOPEKE VA     1100      59   80/  4/  5   N/A
CHES BAY BRIDGE  1100   56 59   80/  7/  8 1020.7R
CAPE HENRY VA    1100   56      80/  7/  8   N/A
CHESAPEAKE LGHT  1100   54      90/ 12/ 12 1021.5R
WILLOUBY STN VA  1100   57     120/  5/  6 1021.7S
CAPE HENRY BUOY  1112      55                N/A     3/11   2/11
CAPE CHARLES BUO 1126      56                N/A     3/11   3/11
OFFSHORE WE BUOY 1121      54                N/A     5/10   5/10
64NM E OF VA BCH 1150   56 53   70/  6/  8 1020.6S   6/10   5/10
DUCK PIER NC     1100   57 66   60/  5/  6 1020.0R
44100 DUCK FRF   1124      54                N/A     4/10   2/11
44056 DUCK FRF   1111      59                N/A     4/11   2/11
OREGON INLET NC  1100   59 61   70/  6/  9 1020.1R
HATTERAS NC      1100   64 67   70/  2/  2 1019.8R
DIAMOND SHLS NC  1150   72 73  180/ 12/ 14 1020.1R   4/ 9   3/ 9
CAPE LOOKOUT NC  1200   68     160/  7/  8 1019.C1F1C2F2C3F3C4F4C5F5C6F6C7F7C8M1C9!



USA.gov is the U.S. government's official web portal to all federal, state and local government web resources and services.